Location: Austin
(30.3000°N, 97.7500°W)
Time: 05:42:29
(UTC-05:00)

Daily predictions for brighter satellites

Satellite Brightness Start Highest point End
(mag) Time Altitude Azimuth Time Altitude Azimuth Time Altitude Azimuth
Cosmos 2233 Rocket 4.4 00:06:19 10° NNW 00:12:00 59° WNW 00:12:00 59° WNW
Cosmos 1844 Rocket 3.7 00:23:31 42° NNE 00:23:31 42° NNE 00:27:11 10° NNE
Cosmos 909 Rocket 4.5 00:18:57 10° NNW 00:25:10 60° WNW 00:25:10 60° WNW
BREEZE-M DEB (TANK) 4.4 00:09:30 10° SW 00:29:47 89° SE 00:34:36 10° NE
SL-12 R/B(2) 4.4 00:45:51 57° ENE 00:45:51 57° ENE 00:53:02 10° NE
ATLAS 2AS CENTAUR R/B 3.2 00:50:28 55° NE 00:50:28 55° NE 00:55:46 10° NNE
SL-16 R/B 4.3 00:54:49 10° NW 00:56:51 17° WNW 00:56:51 17° WNW
Cosmos 2344 4.2 01:10:58 10° NNW 01:20:10 88° ENE 01:21:39 73° SE
Cosmos 2278 Rocket 4.3 01:43:50 18° ENE 01:43:50 18° ENE 01:45:39 10° NE
Cosmos 1943 Rocket 4.5 01:44:27 15° ENE 01:44:27 15° ENE 01:45:46 10° NE
SJ 16-02 4.1 01:50:16 15° NNW 01:50:16 15° NNW 01:51:09 10° N
USA 59 Rocket 2.7 01:52:49 10° NNW 01:53:47 17° N 01:53:47 17° N
SeaSat 1 4.3 02:10:28 26° NNW 02:10:28 26° NNW 02:12:34 10° NNW
USA 234 4.0 02:09:02 10° NNE 02:15:08 43° NW 02:15:37 42° NW
ATLAS 3B R/B 4.1 02:22:08 10° NNW 02:29:17 38° NE 02:33:28 22° ESE
IDEFIX/ARIANE 42P 4.1 02:31:35 10° NNE 02:34:47 31° ENE 02:34:47 31° ENE
H-2A R/B 4.5 02:49:31 10° NE 02:50:50 18° NE 02:50:50 18° NE
Atlas Centaur 2 3.6 02:58:04 42° ESE 02:58:04 42° ESE 03:04:01 10° E
Cosmos 1833 Rocket 3.6 02:51:14 10° NNW 02:54:55 43° NNW 02:54:55 43° NNW
CZ-2C R/B 4.4 02:52:57 10° N 02:56:11 32° NNW 02:56:11 32° NNW
Cosmos 1092 Rocket 4.1 03:04:58 71° ENE 03:04:58 71° ENE 03:10:52 10° N
NPP 4.2 03:00:44 10° NNE 03:05:04 55° NE 03:05:04 55° NE
Resurs 1-4 Rocket 3.2 03:08:45 10° NNE 03:13:16 37° E 03:13:16 37° E
CZ-2C R/B 4.1 03:22:12 27° NW 03:22:12 27° NW 03:24:49 10° NNW
Cosmos 1656 Rocket 4.5 03:23:36 41° ESE 03:23:36 41° ESE 03:28:50 10° NE
Cosmos 2278 Rocket 3.3 03:25:39 32° NW 03:25:39 32° NW 03:30:03 10° N
Cosmos 1943 Rocket 3.2 03:25:57 35° NW 03:25:57 35° NW 03:30:10 10° N
Cosmos 2026 Rocket 4.1 03:28:05 63° WNW 03:28:05 63° WNW 03:33:55 10° N
MSX 4.0 03:23:54 10° N 03:29:04 62° NW 03:29:04 62° NW
Cosmos 2082 Rocket 3.6 03:24:47 10° N 03:29:59 35° ENE 03:33:55 16° ESE
CZ-2D R/B 2.5 03:26:40 10° NNE 03:31:54 53° E 03:31:56 53° ESE
NOSS 3-3 (C) 4.2 03:32:40 44° E 03:32:40 44° E 03:37:30 10° NE
Cosmos 158 Rocket 4.5 03:29:13 10° NNW 03:32:57 51° NNW 03:32:57 51° NNW
USA 229 DEB 4.0 03:32:52 10° NNW 03:40:44 85° ENE 03:47:26 17° SSE
USA 229 4.0 03:32:59 10° NNW 03:40:50 84° ENE 03:47:50 16° SSE
ADEOS II 2.3 03:49:33 10° NNE 03:54:44 61° ESE 03:55:28 55° SE
Cosmos 2098 Rocket 4.5 03:53:39 10° N 03:55:18 25° NNE 03:55:18 25° NNE
Cosmos 724 4.3 03:56:40 63° S 03:57:36 77° ESE 04:03:44 10° NNE
Cosmos 2369 Rocket 2.8 03:59:06 40° SSE 04:00:33 49° ESE 04:06:02 10° NNE
Cosmos 2297 4.0 04:05:45 46° SSE 04:07:08 60° ESE 04:12:39 10° NNE
NOAA 11 4.2 04:04:25 10° NNE 04:09:56 80° ESE 04:11:18 52° S
ATLAS 5 CENTAUR R/B 3.4 04:11:58 14° NNW 04:11:58 14° NNW 04:12:47 10° N
Envisat 3.1 04:05:55 10° NNE 04:10:57 67° ESE 04:12:11 49° SSE
Cosmos 1975 Rocket 4.3 04:12:47 29° NW 04:12:47 29° NW 04:15:48 10° NNW
USA 281 3.7 04:06:56 10° NNE 04:13:19 53° ESE 04:16:39 28° S
Gbstr 26 Del rocket 4.1 04:12:40 47° S 04:14:23 66° SE 04:21:33 10° NE
ALOS 2.0 04:10:20 10° N 04:14:55 85° WNW 04:15:17 75° SSW
IDEFIX/ARIANE 42P 4.2 04:11:57 10° NNW 04:15:29 19° WNW 04:15:29 19° WNW
ATLAS 3B R/B 3.2 04:12:57 10° NW 04:19:59 40° WSW 04:20:35 39° WSW
Cosmos 836 Rocket 4.4 04:15:01 10° NNW 04:20:17 87° WSW 04:22:26 37° SSE
Cosmos 2058 3.8 04:22:35 33° SE 04:23:46 43° E 04:27:34 10° NNE
H-2A R/B 3.4 04:21:31 10° NNE 04:26:13 34° E 04:29:51 15° SSE
Cosmos 220 Rocket 3.7 04:23:30 10° NNW 04:27:39 72° WSW 04:27:49 71° SW
H-2A R/B 4.1 04:25:52 10° NW 04:27:20 14° NW 04:27:20 14° NW
SL-16 R/B 3.6 04:25:34 10° SE 04:31:23 45° ENE 04:37:15 10° N
CZ-3 R/B 4.2 04:19:40 26° SSW 04:33:48 43° SSE 04:43:20 10° E
Cosmos 2285 Rocket 3.9 04:32:57 34° SSW 04:35:53 88° WNW 04:42:15 10° NNE
AQUA 3.7 04:34:32 10° N 04:39:14 79° WNW 04:40:51 41° SSW
NOSS 3-3 (A) 4.4 04:38:21 30° W 04:39:55 36° NW 04:45:09 10° NNE
SEDSat Delta rocket 4.2 04:39:35 29° S 04:40:18 30° SSE 04:44:19 10° E
Lacrosse 5 rocket 2.9 04:40:12 20° SSE 04:41:32 24° ESE 04:44:45 10° ENE
Cosmos 1607 4.4 04:40:24 32° WSW 04:42:51 47° WNW 04:48:50 10° NNE
Atlas Centaur 2 3.0 04:40:03 26° WSW 04:45:11 83° S 04:53:22 10° E
CZ-2C R/B 3.7 04:44:42 10° NE 04:48:57 34° E 04:53:17 10° SSE
Resurs 1-4 Rocket 3.6 04:49:15 10° NNW 04:53:03 21° WNW 04:54:18 19° W
Cosmos 2263 4.2 04:51:16 29° SSW 04:54:16 74° WNW 05:00:00 10° NNE
Cosmos 2228 3.7 04:50:45 10° NNW 04:54:23 31° W 04:54:32 31° W
S3M 4.0 04:47:59 10° N 04:54:23 84° W 05:00:45 10° S
Fermi 4.1 04:55:46 38° SSW 04:56:13 40° S 04:59:55 10° ESE
Meteor 1-28 Rocket 3.8 04:53:28 10° SSE 04:56:46 49° ENE 05:00:03 10° N
Cosmos 1898 Rocket 4.2 04:53:43 14° S 04:57:59 49° ESE 05:02:57 10° NNE
Cosmos 1655 Rocket 4.0 04:53:48 18° S 04:58:39 83° W 05:05:02 10° N
H-2A R/B 3.2 04:57:53 10° NNE 05:01:48 88° WNW 05:04:00 25° SSW
Cosmos 1536 Rocket 4.3 05:02:30 29° WSW 05:03:37 34° W 05:07:32 10° NNW
CZ-4C R/B 3.9 05:01:56 10° SE 05:04:01 14° ESE 05:06:15 10° ENE
COSMOS 2406 3.4 05:03:02 10° NNW 05:08:32 49° WSW 05:14:00 10° S
Cosmos 2315 Rocket 4.0 05:04:02 10° N 05:10:21 86° W 05:16:43 10° S
CZ-2D R/B 3.9 05:08:24 10° NNW 05:11:20 15° WNW 05:13:11 13° W
METEOR-M 4.5 05:08:34 10° N 05:13:39 47° WNW 05:17:09 19° SW
Cosmos 2082 Rocket 3.3 05:09:18 10° NW 05:13:46 24° WSW 05:15:36 20° SW
Cosmos 883 Rocket 4.5 05:07:54 10° N 05:14:10 75° W 05:20:26 10° S
ISS -1.2 05:18:25 10° SSE 05:20:19 14° SE 05:22:13 10° E
Cosmos 1862 3.1 05:18:44 18° SSW 05:21:21 65° W 05:25:01 10° N
VEP-3 3.9 05:19:26 18° SW 05:23:38 45° SSE 05:38:15 10° E
deb Centaur AC-2 4.0 05:20:58 20° WSW 05:23:52 68° SSE 05:28:21 10° E
Molniya-1 4.4 05:29:07 10° S 05:31:41 31° ESE 05:34:46 10° NE
ADEOS II 4.0 05:31:31 10° NW 05:33:41 13° WNW 05:35:51 10° W
Cosmos 2084 3.1 05:31:05 10° NNW 05:34:59 79° WSW 05:38:50 10° SSE
ARGOS 3.4 05:30:16 10° NNE 05:35:40 74° ESE 05:41:04 10° S
Cosmos 1606 Rocket 3.5 05:31:28 10° NNW 05:35:41 58° W 05:39:53 10° S
Helios 1A Rocket 2.5 05:37:10 10° SSE 05:40:42 87° ENE 05:44:16 10° NNW
BlueWalker 3 2.0 05:37:48 13° SSW 05:41:00 67° SE 05:44:37 10° NE
Cosmos 1441 Rocket 3.8 05:40:04 10° S 05:43:28 51° E 05:46:54 10° NNE
SL-4 R/B 4.1 05:40:37 10° NNW 05:43:50 27° NE 05:46:53 10° E
Cosmos 2369 Rocket 3.9 05:40:53 10° WSW 05:44:46 19° WNW 05:48:40 10° NNW
Cosmos 1892 Rocket 4.1 05:42:23 10° SSW 05:46:32 39° W 05:50:41 10° N
Cosmos 1461 3.9 05:43:09 10° NNW 05:47:07 48° ENE 05:51:01 10° SE
CZ-4 R/B 4.1 05:50:10 10° NNE 05:55:09 78° ESE 06:00:07 10° S
UNK 3.9 05:52:45 10° S 05:57:08 50° W 06:01:32 10° NNW
Cosmos 1782 3.9 05:55:04 10° NW 05:57:56 22° W 06:00:46 10° SW
Cosmos 1933 3.2 05:54:34 10° NNW 05:58:22 64° W 06:02:10 10° S
Aureole 1 Rocket 4.4 05:58:42 10° WSW 06:01:49 23° WNW 06:05:30 10° N
Cosmos 1758 Rocket 4.1 05:58:20 10° S 06:02:32 61° E 06:06:45 10° NNE
Meteor 2-3 Rocket 4.1 05:58:23 10° SSW 06:03:50 47° W 06:09:23 10° N
Cosmos 1400 Rocket 4.2 06:01:25 10° NW 06:04:08 19° W 06:06:52 10° SW
H-2A R/B 3.5 06:01:22 10° NNW 06:05:13 21° WNW 06:08:59 10° WSW
Centaur D-1A AC-31 4.1 06:04:53 10° SW 06:37:41 42° S 06:43:26 10° E
